Flag for Brazil Weather past 2 weeks in Cuiabá, Mato Grosso, Brazil

Now
84 °F

Partly sunny.


Feels Like: 88 °F
Forecast: 71 / 83 °F
Wind: 12 mph from North

Location: Cuiaba Aeroporto

Current Time: Jan 26, 2015 at 12:15:44 PM

Latest Report: Jan 26, 2015 at 12:00 PM


Visibility: N/A

Pressure: 29.92 "Hg

Humidity: 62%

Dew point: 70 °F

Location of CuiabáLocation

Historic Weather in Cuiabá — Graph

°F

Cuiabá temperature yesterday

Maximum temperature yesterday: 90 °F (at 4:00 PM)
Minimum temperature yesterday: 73 °F (at 2:00 AM)
Average temperature yesterday: 80 °F

Past Weeks' High & Low Weather Summary

 TemperatureHumidityPressure
High95 °F (Jan 11, 2:00 PM)100% (Jan 13, 4:00 PM)30.04 "Hg (Jan 13, 4:00 PM)
Low39 °F (Jan 13, 4:00 PM)41% (Jan 11, 3:00 PM)29.77 "Hg (Jan 22, 6:00 PM)
Average79 °F77%29.91 "Hg
* Reported Jan 11 11:00 AM — Jan 26 11:00 AM, Cuiabá, Weather by CustomWeather, © 2014

Note: Actual official high and low records may vary slightly from our data, if they occured in-between our weather recording intervals... More about our weather records

Advertising

Cuiabá weather history for previous 24 hours

 ConditionsComfort  
Time TempWeatherWind HumidityBarometerVisibility
11:00 AM
Jan 26
84 °FScattered clouds.12 mph66%29.95 "HgN/A
10:00 AM81 °FScattered clouds.16 mph70%29.95 "HgN/A
9:00 AM79 °FScattered clouds.16 mph79%29.95 "HgN/A
8:00 AM77 °FScattered clouds.13 mph83%29.92 "HgN/A
7:00 AM75 °FClear.9 mph83%29.89 "Hg10 mi
6:00 AM73 °FClear.6 mph94%29.89 "Hg10 mi
5:00 AM75 °FPassing clouds.7 mph89%29.89 "HgN/A
4:00 AM77 °FPassing clouds.12 mph83%29.89 "HgN/A
3:00 AM77 °FPassing clouds.6 mph83%29.89 "HgN/A
2:00 AM77 °FPassing clouds.5 mph83%29.89 "HgN/A
1:00 AM79 °FPassing clouds.6 mph79%29.92 "HgN/A
12:00 AM81 °FPassing clouds.7 mph74%29.92 "HgN/A
11:00 PM
Jan 25
79 °FPassing clouds.7 mph84%29.92 "HgN/A
10:00 PM79 °FPassing clouds.6 mph84%29.89 "HgN/A
9:00 PM79 °FPassing clouds.3 mph79%29.89 "HgN/A
8:00 PM81 °FPassing clouds.3 mph74%29.83 "HgN/A
7:00 PM82 °FPassing clouds.7 mph66%29.83 "HgN/A
6:00 PM86 °FScattered clouds.12 mph59%29.80 "HgN/A
5:00 PM90 °FScattered clouds.9 mph46%29.80 "HgN/A
4:00 PM90 °FScattered clouds.9 mph46%29.80 "HgN/A
3:00 PM88 °FScattered clouds.9 mph49%29.83 "HgN/A
2:00 PM88 °FScattered clouds.10 mph52%29.86 "HgN/A
1:00 PM88 °FScattered clouds.13 mph55%29.92 "HgN/A
12:00 PM84 °FScattered clouds.10 mph62%29.92 "HgN/A
Weather by CustomWeather, © 2014

See weather overviewHow to use our weather pages